This demonstration page uses our WeatherBlox Daily Observations layout. Learn more.

Hourly Observations for September 19, 2015

Temp ( °F °C ) Dew Point ( °F °C ) Humidity (%) Winds ( mph kmh ) Pressure ( in mb ) Visibility ( mi km ) Precip ( " mm )
12:15 am 00:15 Clear 50 10 44 6.7 80 80 N 10 17 30.15 1021 10 16.0934 0 0
12:35 am 00:35 Partly Cloudy 50 10.1 44 6.7 80 80 NNW 9 15 30.15 1021 10 16.0934 0 0
12:55 am 00:55 Mostly Cloudy 50 10 44 6.7 80 80 NNW 8 13 30.15 1021 10 16.0934 0 0
1:15 am 01:15 Cloudy 49 9.4 44 6.7 83 83 NNW 5 7 30.15 1021 10 16.0934 0 0
1:35 am 01:35 Cloudy 49 9.6 45 7 84 84 N 6 9 30.15 1021 10 16.0934 0 0
1:55 am 01:55 Cloudy 50 10 45 7.1 82 82 N 8 13 30.15 1021 10 16.0934 0 0
2:15 am 02:15 Cloudy 51 10.6 46 7.9 84 84 N 9 15 30.12 1020 10 16.0934 0 0
2:35 am 02:35 Cloudy 52 10.9 47 8.2 84 84 N 9 15 30.12 1020 10 16.0934 0 0
2:55 am 02:55 Cloudy 52 11 47 8.5 85 85 N 6 9 30.12 1020 10 16.0934 0 0
3:15 am 03:15 Cloudy 52 11 47 8.6 85 85 N 8 13 30.12 1020 10 16.0934 0 0
3:35 am 03:35 Cloudy 51 10.8 48 8.8 88 88 N 9 15 30.12 1020 10 16.0934 0 0
3:55 am 03:55 Cloudy 52 11 48 8.7 86 86 N 6 9 30.15 1021 10 16.0934 0 0
4:15 am 04:15 Cloudy 52 11 48 8.8 86 86 N 6 9 30.15 1021 10 16.0934 0 0
4:35 am 04:35 Cloudy 52 11 48 8.8 86 86 N 7 11 30.12 1020 10 16.0934 0 0
4:55 am 04:55 Cloudy 52 10.9 48 8.9 88 88 N 6 9 30.15 1021 10 16.0934 0 0
5:15 am 05:15 Cloudy 51 10.7 47 8.6 87 87 N 7 11 30.15 1021 10 16.0934 0 0
5:35 am 05:35 Cloudy 51 10.3 47 8.2 87 87 N 6 9 30.18 1022 10 16.0934 0 0
5:55 am 05:55 Cloudy 51 10.5 47 8.5 88 88 NNE 3 6 30.15 1021 10 16.0934 0 0
6:15 am 06:15 Cloudy 51 10.6 47 8.4 86 86 N 6 9 30.15 1021 10 16.0934 0 0
6:35 am 06:35 Cloudy 50 10.2 47 8.1 87 87 NNE 6 9 30.18 1022 10 16.0934 0 0
6:55 am 06:55 Cloudy 50 10.2 47 8.1 87 87 NNE 5 7 30.18 1022 10 16.0934 0 0
7:15 am 07:15 Cloudy 51 10.3 46 8 86 86 Calm 30.21 1023 10 16.0934 0 0
7:35 am 07:35 Cloudy 51 10.3 46 7.9 85 85 Calm 30.21 1023 10 16.0934 0 0
7:55 am 07:55 Cloudy 50 10.2 46 8 86 86 E 3 6 30.21 1023 10 16.0934 0 0
8:15 am 08:15 Cloudy 50 10.2 46 8 86 86 ESE 5 7 30.21 1023 10 16.0934 0 0
8:35 am 08:35 Cloudy 51 10.3 46 7.8 85 85 ESE 3 6 30.21 1023 10 16.0934 0 0
8:55 am 08:55 Cloudy 51 10.5 46 7.6 82 82 SE 5 7 30.24 1024 10 16.0934 0 0
9:15 am 09:15 Cloudy 51 10.5 46 7.6 82 82 ESE 3 6 30.24 1024 10 16.0934 0 0
9:35 am 09:35 Cloudy 51 10.5 46 7.5 82 82 Calm 30.24 1024 10 16.0934 0 0
9:55 am 09:55 Cloudy 51 10.6 46 7.5 81 81 E 6 9 30.18 1022 10 16.0934 0 0
10:15 am 10:15 Cloudy 52 11 46 7.6 80 80 SSE 5 7 30.18 1022 10 16.0934 0 0
10:35 am 10:35 Cloudy 52 11 45 7.3 78 78 Calm 30.24 1024 10 16.0934 0 0
10:55 am 10:55 Cloudy 52 11.1 46 7.8 80 80 E 3 6 30.18 1022 10 16.0934 0 0
11:15 am 11:15 Cloudy 53 11.5 46 7.7 78 78 WSW 5 7 30.18 1022 10 16.0934 0 0
11:35 am 11:35 Cloudy 54 12 46 7.9 76 76 Calm 30.18 1022 10 16.0934 0 0
11:55 am 11:55 Cloudy 54 12.2 46 7.9 75 75 Calm 30.18 1022 10 16.0934 0 0
12:15 pm 12:15 Cloudy 56 13.3 47 8.3 72 72 SSE 8 13 30.18 1022 10 16.0934 0 0
12:35 pm 12:35 Cloudy 57 13.8 47 8.2 69 69 SSE 8 13 30.18 1022 10 16.0934 0 0
12:55 pm 12:55 Cloudy 58 14.3 46 8 66 66 S 7 11 30.12 1020 10 16.0934 0 0
1:15 pm 13:15 Cloudy 59 14.9 47 8.1 64 64 SW 5 7 30.12 1020 10 16.0934 0 0
1:35 pm 13:35 Mostly Cloudy 60 15.3 46 7.9 62 62 SSE 3 6 30.12 1020 10 16.0934 0 0
1:55 pm 13:55 Partly Cloudy 61 15.9 46 8 60 60 SSW 3 6 30.09 1019 10 16.0934 0 0
2:15 pm 14:15 Partly Cloudy 60 15.5 47 8.1 62 62 Calm 30.09 1019 10 16.0934 0 0
2:35 pm 14:35 Mostly Cloudy 62 16.6 46 8 57 57 SSE 7 11 30.09 1019 10 16.0934 0 0
2:55 pm 14:55 Partly Cloudy 64 17.5 46 7.9 54 54 S 7 11 30.06 1018 10 16.0934 0 0
3:15 pm 15:15 Sunny 64 17.5 46 7.6 52 52 S 8 13 30.06 1018 10 16.0934 0 0
3:35 pm 15:35 Partly Cloudy 65 18.4 44 6.7 47 47 S 10 17 30.06 1018 10 16.0934 0 0
3:55 pm 15:55 Sunny 67 19.2 46 7.6 47 47 S 6 9 30.03 1017 10 16.0934 0 0
4:15 pm 16:15 Sunny 67 19.3 44 6.9 45 45 SSW 12 19 30.03 1017 10 16.0934 0 0
4:35 pm 16:35 Partly Cloudy 67 19.5 45 7.3 45 45 S 10 17 30.03 1017 10 16.0934 0 0
4:55 pm 16:55 Partly Cloudy 69 20.8 45 7.1 41 41 SSE 9 15 29.97 1015 10 16.0934 0 0
5:15 pm 17:15 Partly Cloudy 68 20.1 45 7.1 43 43 S 7 11 30 1016 10 16.0934 0 0
5:35 pm 17:35 Mostly Cloudy 68 20.1 44 6.7 42 42 SSE 8 13 30 1016 10 16.0934 0 0
5:55 pm 17:55 Cloudy 68 20.1 44 6.8 42 42 SSE 12 19 30 1016 10 16.0934 0 0
6:15 pm 18:15 Mostly Cloudy 69 20.7 44 6.5 40 40 SSE 10 17 29.97 1015 10 16.0934 0 0
6:35 pm 18:35 Partly Cloudy 69 20.4 44 6.8 41 41 SSE 12 19 30 1016 10 16.0934 0 0
6:55 pm 18:55 Sunny 67 19.2 44 6.7 44 44 SSE 9 15 30 1016 10 16.0934 0 0
7:15 pm 19:15 Partly Cloudy 65 18.5 45 7.3 48 48 SSE 9 15 30 1016 10 16.0934 0 0
7:35 pm 19:35 Mostly Cloudy 64 18 46 7.8 52 52 SSE 8 13 30 1016 10 16.0934 0 0
7:55 pm 19:55 Cloudy 63 17.2 47 8.2 56 56 SSE 5 7 30 1016 10 16.0934 0 0
8:15 pm 20:15 Partly Cloudy 60 15.8 47 8.3 61 61 SE 5 7 30.03 1017 10 16.0934 0 0
8:35 pm 20:35 Partly Cloudy 58 14.7 47 8.5 67 67 SE 7 11 30.03 1017 10 16.0934 0 0
8:55 pm 20:55 Clear 58 14.2 48 8.7 70 70 SE 7 11 30.03 1017 10 16.0934 0 0
9:15 pm 21:15 Clear 56 13.6 47 8.5 72 72 SE 7 11 30.03 1017 10 16.0934 0 0
9:35 pm 21:35 Clear 56 13.4 47 8.5 72 72 SE 8 13 30.06 1018 10 16.0934 0 0
9:55 pm 21:55 Clear 56 13.2 48 8.7 74 74 SE 6 9 30.06 1018 10 16.0934 0 0
10:15 pm 22:15 Clear 54 12.2 47 8.2 77 77 SE 6 9 30.06 1018 10 16.0934 0 0
10:35 pm 22:35 Clear 52 11.3 47 8.3 82 82 SE 7 11 30.06 1018 10 16.0934 0 0
10:55 pm 22:55 Clear 53 11.4 47 8.5 83 83 SSE 9 15 30.06 1018 10 16.0934 0 0
11:15 pm 23:15 Clear 54 12.2 47 8.6 79 79 SSE 8 13 30.06 1018 10 16.0934 0 0
11:35 pm 23:35 Clear 56 13.2 47 8.6 74 74 SSE 8 13 30.06 1018 10 16.0934 0 0
11:55 pm 23:55 Clear 56 13.5 47 8.6 72 72 SSE 8 13 30.03 1017 10 16.0934 0 0

Powered by AerisWeather